TimeMST,TemperatureF,Dew PointF,Humidity,Sea Level PressureIn,VisibilityMPH,Wind Direction,Wind SpeedMPH,Gust SpeedMPH,PrecipitationIn,Events,Conditions,WindDirDegrees,DateUTC
12:54 AM,57.9,33.1,39,29.89,10.0,Calm,Calm,-,N/A,,Clear,0,2012-10-08 07:54:00
1:54 AM,55.0,33.1,43,29.89,10.0,Calm,Calm,-,N/A,,Clear,0,2012-10-08 08:54:00
2:54 AM,53.1,33.1,47,29.88,10.0,Calm,Calm,-,N/A,,Clear,0,2012-10-08 09:54:00
3:54 AM,52.0,34.0,50,29.89,10.0,Calm,Calm,-,N/A,,Clear,0,2012-10-08 10:54:00
4:54 AM,50.0,34.0,54,29.90,10.0,ENE,3.5,-,N/A,,Clear,60,2012-10-08 11:54:00
5:54 AM,51.1,34.0,52,29.93,10.0,Calm,Calm,-,N/A,,Clear,0,2012-10-08 12:54:00
6:54 AM,52.0,35.1,53,29.95,10.0,SSW,3.5,-,N/A,,Clear,200,2012-10-08 13:54:00
7:54 AM,57.9,34.0,41,29.97,10.0,South,3.5,-,N/A,,Clear,180,2012-10-08 14:54:00
8:54 AM,68.0,35.1,30,29.97,10.0,South,3.5,-,N/A,,Clear,180,2012-10-08 15:54:00
9:54 AM,75.9,36.0,23,29.95,10.0,Calm,Calm,-,N/A,,Clear,0,2012-10-08 16:54:00
10:54 AM,82.0,33.1,17,29.91,10.0,South,9.2,-,N/A,,Clear,170,2012-10-08 17:54:00
11:54 AM,82.9,27.0,13,29.90,10.0,SW,8.1,-,N/A,,Clear,220,2012-10-08 18:54:00
12:54 PM,84.9,26.1,12,29.87,10.0,South,13.8,-,N/A,,Clear,190,2012-10-08 19:54:00
1:54 PM,84.9,24.1,11,29.86,10.0,WSW,6.9,18.4,N/A,,Clear,240,2012-10-08 20:54:00
2:54 PM,86.0,27.0,12,29.85,10.0,South,8.1,-,N/A,,Clear,170,2012-10-08 21:54:00
3:54 PM,86.0,28.9,13,29.85,10.0,SW,8.1,-,N/A,,Clear,220,2012-10-08 22:54:00
4:54 PM,84.0,26.1,12,29.86,10.0,SW,10.4,-,N/A,,Clear,230,2012-10-08 23:54:00
5:54 PM,79.0,27.0,15,29.87,10.0,SW,5.8,-,N/A,,Clear,220,2012-10-09 00:54:00
6:54 PM,73.0,28.9,20,29.89,10.0,Calm,Calm,-,N/A,,Clear,0,2012-10-09 01:54:00
7:54 PM,66.9,32.0,27,29.91,10.0,East,5.8,-,N/A,,Clear,100,2012-10-09 02:54:00
8:54 PM,66.0,34.0,30,29.92,10.0,Calm,Calm,-,N/A,,Clear,0,2012-10-09 03:54:00
9:54 PM,63.0,36.0,37,29.92,10.0,Calm,Calm,-,N/A,,Clear,0,2012-10-09 04:54:00
10:54 PM,64.0,34.0,33,29.91,10.0,ESE,4.6,-,N/A,,Clear,110,2012-10-09 05:54:00
11:54 PM,68.0,30.9,25,29.90,10.0,SSE,3.5,-,N/A,,Clear,160,2012-10-09 06:54:00